QPF
0.00 0.00 0.00 0.00 0.00 0.00 0.00 0.00 0.00 0.00 0.00 0.00 0.00 0.00 0.00 0.00 0.00 0.00 0.00 0.00 0.00 0.00 0.00 0.00 0.00 0.00 0.00 0.00 0.00 0.00 0.00 0.00 0.00 0.00 0.00 0.00 0.00 0.00 0.00 0.00 0.00 0.00 0.00 0.00 0.00 0.00 0.00 0.00 0.00
0.00 0.00 0.00 0.00 0.00 0.00 0.00 0.00 0.00 0.00 0.00 0.00 0.00 0.00 0.00 0.00 0.00 0.00 0.00 0.00 0.00 0.00 0.00 0.00 0.00 0.00 0.00 0.00 0.00 0.00 0.00 0.00 0.00 0.00 0.00 0.00 0.00 0.00 0.00 0.00 0.00 0.00 0.00 0.00 0.00 0.00 0.00 0.00 0.00
0.00 0.00 0.00 0.00 0.00 0.00 0.00 0.00 0.00 0.00 0.00 0.00 0.00 0.00 0.00 0.00 0.00 0.00 0.00 0.00 0.00 0.00 0.00 0.00 0.00 0.00 0.00 0.00 0.00 0.00 0.00 0.00 0.00 0.00 0.00 0.00 0.00 0.00 0.00 0.00 0.00 0.00 0.00 0.00 0.00 0.00 0.00 0.00 0.00
0.00 0.00 0.00 0.00 0.00 0.00 0.00 0.00 0.00 0.00 0.00 0.00 0.00 0.00 0.00 0.00 0.00 0.00 0.00 0.00 0.00 0.00 0.00 0.00 0.00 0.00 0.00 0.00 0.00 0.00 0.00 0.00 0.00 0.00 0.00 0.00 0.00 0.00 0.00 0.00 0.00 0.00 0.00 0.00 0.00 0.00 0.00 0.00 0.00
0.00 0.00 0.00 0.00 0.00 0.00 0.00 0.00 0.00 0.00 0.00 0.00 0.00 0.00 0.00 0.00 0.00 0.00 0.00 0.00 0.00 0.00 0.00 0.00 0.00 0.00 0.00 0.00 0.00 0.00 0.00 0.00 0.00 0.00 0.00 0.00 0.00 0.00 0.00 0.00 0.00 0.00 0.00 0.00 0.00 0.00 0.00 0.00 0.00
0.00 0.00 0.00 0.00 0.00 0.00 0.00 0.00 0.00 0.00 0.00 0.00 0.00 0.00 0.00 0.00 0.00 0.00 0.00 0.00 0.00 0.00 0.00 0.00 0.00 0.00 0.00 0.00 0.00 0.00 0.00 0.00 0.00 0.00 0.00 0.00 0.00 0.00 0.00 0.00 0.00 0.00 0.00 0.00 0.00 0.00 0.00 0.00 0.00
0.00 0.00 0.00 0.00 0.00 0.00 0.00 0.00 0.00 0.00 0.00 0.00 0.00 0.00 0.00 0.00 0.00 0.00 0.00 0.00 0.00 0.00 0.00 0.00 0.00 0.00 0.00 0.00 0.00 0.00 0.00 0.00 0.00 0.00 0.00 0.00 0.00 0.00 0.00 0.00 0.00 0.00 0.00 0.00 0.00 0.00 0.00 0.00 0.00
0.00 0.00 0.00 0.00 0.00 0.00 0.00 0.00 0.00 0.00 0.00 0.00 0.00 0.00 0.00 0.00 0.00 0.00 0.00 0.00 0.00 0.00 0.00 0.00 0.00 0.00 0.00 0.00 0.00 0.00 0.00 0.00 0.00 0.00 0.00 0.00 0.00 0.00 0.00 0.00 0.00 0.00 0.00 0.00 0.00 0.00 0.00 0.00 0.00
0.00 0.00 0.00 0.00 0.00 0.00 0.00 0.00 0.00 0.00 0.00 0.00 0.00 0.00 0.00 0.00 0.00 0.00 0.00 0.00 0.00 0.00 0.00 0.00 0.00 0.00 0.00 0.00 0.00 0.00 0.00 0.00 0.00 0.00 0.00 0.00 0.00 0.00 0.00 0.00 0.00 0.00 0.00 0.00 0.00 0.00 0.00 0.00 0.00
0.00 0.00 0.00 0.00 0.00 0.00 0.00 0.00 0.00 0.00 0.00 0.00 0.00 0.00 0.00 0.00 0.00 0.00 0.00 0.00 0.00 0.00 0.00 0.00 0.00 0.00 0.00 0.00 0.00 0.00 0.00 0.00 0.00 0.00 0.00 0.00 0.00 0.00 0.00 0.00 0.00 0.00 0.00 0.00 0.00 0.00 0.00 0.00 0.00
0.00 0.00 0.00 0.00 0.00 0.00 0.00 0.00 0.00 0.00 0.00 0.00 0.00 0.00 0.00 0.00 0.00 0.00 0.00 0.00 0.00 0.00 0.00 0.00 0.00 0.00 0.00 0.00 0.00 0.00 0.00 0.00 0.00 0.00 0.00 0.00 0.00 0.00 0.00 0.00 0.00 0.00 0.00 0.00 0.00 0.00 0.00 0.00 0.00
0.00 0.00 0.00 0.00 0.00 0.00 0.00 0.00 0.00 0.00 0.00 0.00 0.00 0.00 0.00 0.00 0.00 0.00 0.00 0.00 0.00 0.00 0.00 0.00 0.00 0.00 0.00 0.00 0.00 0.00 0.00 0.00 0.00 0.00 0.00 0.00 0.00 0.00 0.00 0.00 0.00 0.00 0.00 0.00 0.00 0.00 0.00 0.00 0.00
0.00 0.00 0.00 0.00 0.00 0.00 0.00 0.00 0.00 0.00 0.00 0.00 0.00 0.00 0.00 0.00 0.00 0.00 0.00 0.00 0.00 0.00 0.00 0.00 0.00 0.00 0.00 0.00 0.00 0.00 0.00 0.00 0.00 0.00 0.00 0.00 0.00 0.00 0.00 0.00 0.00 0.00 0.00 0.00 0.00 0.00 0.00 0.00 0.00
0.00 0.00 0.00 0.00 0.00 0.00 0.00 0.00 0.00 0.00 0.00 0.00 0.00 0.00 0.00 0.00 0.00 0.00 0.00 0.00 0.00 0.00 0.00 0.00 0.00 0.00 0.00 0.00 0.00 0.00 0.00 0.00 0.00 0.00 0.00 0.00 0.00 0.00 0.00 0.00 0.00 0.00 0.00 0.00 0.00 0.00 0.00 0.00 0.00
0.00 0.00 0.00 0.00 0.00 0.00 0.00 0.00 0.00 0.00 0.00 0.00 0.00 0.00 0.00 0.00 0.00 0.00 0.00 0.00 0.00 0.00 0.00 0.00 0.00 0.00 0.00 0.00 0.00 0.00 0.00 0.00 0.00 0.00 0.00 0.00 0.00 0.00 0.00 0.00 0.00 0.00 0.00 0.00 0.00 0.00 0.00 0.00 0.00
0.00 0.00 0.00 0.00 0.00 0.00 0.00 0.00 0.00 0.00 0.00 0.00 0.00 0.00 0.00 0.00 0.00 0.00 0.00 0.00 0.00 0.00 0.00 0.00 0.00 0.00 0.00 0.00 0.00 0.00 0.00 0.00 0.00 0.00 0.00 0.00 0.00 0.00 0.00 0.00 0.00 0.00 0.00 0.00 0.00 0.00 0.00 0.00 0.00
0.00 0.00 0.00 0.00 0.00 0.00 0.00 0.00 0.00 0.00 0.00 0.00 0.00 0.00 0.00 0.00 0.00 0.00 0.00 0.00 0.00 0.00 0.00 0.00 0.00 0.00 0.00 0.00 0.00 0.00 0.00 0.00 0.00 0.00 0.00 0.00 0.00 0.00 0.00 0.00 0.00 0.00 0.00 0.00 0.00 0.00 0.00 0.00 0.00
0.00 0.00 0.00 0.00 0.00 0.00 0.00 0.00 0.00 0.00 0.00 0.00 0.00 0.00 0.00 0.00 0.00 0.00 0.00 0.00 0.00 0.00 0.00 0.00 0.00 0.00 0.00 0.00 0.00 0.00 0.00 0.00 0.00 0.00 0.00 0.00 0.00 0.00 0.00 0.00 0.00 0.00 0.00 0.00 0.00 0.00 0.00 0.00 0.00
0.00 0.00 0.00 0.00 0.00 0.00 0.00 0.00 0.00 0.00 0.00 0.00 0.00 0.00 0.00 0.00 0.00 0.00 0.00 0.00 0.00 0.00 0.00 0.00 0.00 0.00 0.00 0.00 0.00 0.00 0.00 0.00 0.00 0.00 0.00 0.00 0.00 0.00 0.00 0.00 0.00 0.00 0.00 0.00 0.00 0.00 0.00 0.00 0.01
0.00 0.00 0.00 0.00 0.00 0.00 0.00 0.00 0.00 0.00 0.00 0.00 0.00 0.00 0.00 0.00 0.00 0.00 0.00 0.00 0.00 0.00 0.00 0.00 0.00 0.00 0.00 0.00 0.00 0.01 0.01 0.00 0.00 0.00 0.00 0.00 0.00 0.00 0.00 0.00 0.00 0.00 0.00 0.00 0.00 0.00 0.00 0.00 0.01
0.00 0.00 0.00 0.00 0.00 0.00 0.00 0.00 0.00 0.00 0.00 0.00 0.00 0.00 0.00 0.00 0.00 0.00 0.00 0.00 0.00 0.00 0.00 0.00 0.00 0.00 0.00 0.00 0.00 0.00 0.01 0.00 0.01 0.00 0.00 0.00 0.00 0.00 0.00 0.01 0.01 0.00 0.00 0.00 0.00 0.00 0.00 0.00 0.00
0.00 0.00 0.00 0.00 0.00 0.00 0.00 0.00 0.00 0.00 0.00 0.00 0.00 0.00 0.00 0.00 0.00 0.00 0.00 0.00 0.00 0.00 0.00 0.00 0.00 0.00 0.00 0.00 0.00 0.00 0.00 0.00 0.00 0.00 0.01 0.01 0.06 0.10 0.13 0.10 0.09 0.06 0.06 0.00 0.00 0.00 0.00 0.00 0.01
0.00 0.00 0.00 0.00 0.00 0.00 0.00 0.00 0.00 0.00 0.00 0.00 0.00 0.00 0.00 0.00 0.00 0.00 0.00 0.00 0.00 0.00 0.00 0.00 0.00 0.00 0.00 0.00 0.00 0.00 0.00 0.01 0.01 0.02 0.09 0.12 0.20 0.28 0.25 0.24 0.21 0.16 0.14 0.06 0.02 0.01 0.01 0.01 0.00
0.00 0.00 0.00 0.00 0.00 0.00 0.00 0.00 0.00 0.00 0.00 0.00 0.01 0.02 0.00 0.00 0.00 0.00 0.00 0.00 0.00 0.00 0.00 0.00 0.00 0.00 0.00 0.00 0.00 0.01 0.01 0.02 0.05 0.05 0.05 0.10 0.15 0.15 0.10 0.11 0.13 0.13 0.11 0.11 0.12 0.14 0.08 0.04 0.02
0.00 0.00 0.00 0.00 0.00 0.00 0.00 0.00 0.00 0.00 0.00 0.00 0.02 0.03 0.00 0.00 0.00 0.00 0.00 0.00 0.00 0.00 0.00 0.00 0.00 0.00 0.00 0.00 0.00 0.00 0.01 0.02 0.03 0.05 0.05 0.05 0.04 0.03 0.04 0.05 0.07 0.08 0.11 0.10 0.10 0.07 0.05 0.06 0.03
0.00 0.00 0.00 0.00 0.00 0.00 0.00 0.00 0.00 0.02 0.01 0.00 0.01 0.01 0.01 0.01 0.01 0.00 0.00 0.00 0.01 0.01 0.00 0.00 0.00 0.00 0.00 0.00 0.01 0.02 0.02 0.02 0.03 0.05 0.02 0.02 0.01 0.00 0.01 0.01 0.04 0.04 0.05 0.06 0.07 0.06 0.04 0.05 0.04
0.00 0.00 0.00 0.00 0.00 0.00 0.00 0.00 0.00 0.01 0.00 0.00 0.01 0.00 0.01 0.01 0.05 0.05 0.04 0.03 0.02 0.01 0.00 0.00 0.01 0.01 0.01 0.01 0.01 0.01 0.01 0.01 0.01 0.01 0.01 0.00 0.00 0.00 0.00 0.00 0.00 0.01 0.01 0.02 0.02 0.01 0.01 0.02 0.03
0.00 0.00 0.01 0.00 0.00 0.00 0.00 0.00 0.00 0.00 0.00 0.01 0.01 0.00 0.00 0.02 0.05 0.05 0.05 0.04 0.03 0.01 0.01 0.01 0.01 0.01 0.01 0.00 0.00 0.00 0.00 0.00 0.00 0.00 0.00 0.00 0.00 0.00 0.00 0.00 0.00 0.00 0.00 0.00 0.00 0.00 0.00 0.00 0.00
0.00 0.00 0.01 0.01 0.00 0.01 0.01 0.00 0.00 0.00 0.00 0.01 0.01 0.01 0.01 0.01 0.02 0.04 0.03 0.02 0.01 0.01 0.01 0.01 0.01 0.01 0.00 0.00 0.00 0.00 0.00 0.00 0.00 0.00 0.00 0.00 0.00 0.00 0.00 0.00 0.00 0.00 0.00 0.00 0.00 0.00 0.00 0.00 0.00
0.00 0.00 0.01 0.01 0.00 0.00 0.00 0.00 0.00 0.00 0.00 0.00 0.00 0.01 0.01 0.02 0.03 0.02 0.02 0.02 0.02 0.02 0.02 0.01 0.00 0.00 0.00 0.00 0.00 0.00 0.00 0.00 0.00 0.00 0.00 0.00 0.00 0.00 0.00 0.00 0.00 0.00 0.00 0.00 0.00 0.00 0.00 0.00 0.01
MSLP
1014.00 1014.03 1013.96 1013.70 1014.23 1014.02 1013.10 1012.20 1011.69 1011.10 1010.59 1009.79 1009.55 1008.94 1008.22 1007.86 1007.31 1006.99 1006.68 1006.53 1007.11 1007.11 1007.81 1008.85 1009.57 1010.18 1010.79 1011.16 1011.26 1011.47 1011.84 1012.18 1012.50 1012.80 1013.09 1013.47 1013.77 1014.12 1014.63 1014.90 1015.24 1015.56 1015.77 1015.91 1016.05 1016.22 1016.40 1016.59 1016.79
1013.97 1013.96 1013.96 1014.08 1013.76 1013.25 1012.13 1011.53 1011.07 1010.68 1010.08 1009.57 1008.76 1008.42 1007.99 1007.13 1007.05 1006.57 1006.78 1007.19 1007.30 1007.19 1007.82 1008.70 1009.47 1010.04 1010.67 1011.18 1011.57 1011.66 1011.85 1012.30 1012.66 1013.01 1013.28 1013.62 1013.99 1014.37 1014.79 1015.09 1015.34 1015.66 1015.90 1015.99 1016.17 1016.37 1016.59 1016.85 1017.08
1013.93 1013.98 1013.96 1014.06 1013.72 1012.17 1011.12 1010.84 1010.53 1010.37 1010.01 1009.54 1008.64 1008.05 1007.64 1007.22 1006.89 1006.76 1006.83 1007.40 1007.73 1007.61 1007.94 1008.81 1009.49 1010.06 1010.75 1011.15 1011.65 1011.97 1012.18 1012.32 1012.77 1013.09 1013.43 1013.69 1014.15 1014.55 1015.00 1015.28 1015.48 1015.75 1016.01 1016.16 1016.30 1016.60 1016.85 1017.08 1017.35
1013.97 1014.23 1015.10 1014.36 1013.20 1011.97 1011.46 1010.76 1010.72 1010.14 1009.86 1009.49 1009.05 1008.28 1007.64 1006.77 1006.96 1006.94 1007.16 1007.67 1008.25 1008.08 1008.09 1009.13 1009.62 1010.29 1010.84 1011.41 1011.83 1012.00 1012.38 1012.47 1012.79 1013.21 1013.44 1013.85 1014.18 1014.63 1015.13 1015.51 1015.69 1015.94 1016.13 1016.25 1016.50 1016.78 1017.05 1017.27 1017.58
1014.37 1014.44 1014.29 1014.08 1013.17 1012.15 1011.49 1011.04 1010.79 1010.17 1010.00 1009.43 1009.14 1008.33 1007.87 1007.27 1007.74 1007.75 1007.36 1007.92 1008.32 1008.77 1008.55 1009.04 1009.62 1010.20 1010.86 1011.45 1011.88 1012.20 1012.43 1012.68 1012.89 1013.26 1013.52 1013.89 1014.23 1014.68 1015.14 1015.51 1015.79 1016.07 1016.32 1016.47 1016.74 1016.99 1017.22 1017.47 1017.74
1014.30 1014.64 1014.24 1013.67 1013.06 1012.04 1011.01 1010.77 1010.60 1009.99 1009.58 1009.28 1008.91 1008.37 1007.85 1007.83 1007.77 1008.17 1008.38 1008.09 1008.58 1008.91 1009.18 1009.02 1009.59 1010.20 1010.87 1011.48 1011.85 1012.17 1012.40 1012.64 1013.10 1013.28 1013.65 1013.94 1014.32 1014.74 1015.18 1015.51 1015.81 1016.15 1016.52 1016.75 1016.92 1017.16 1017.33 1017.68 1017.93
1014.27 1014.44 1014.02 1013.74 1013.14 1012.15 1011.11 1010.74 1010.45 1009.87 1009.42 1008.90 1008.80 1008.28 1007.63 1007.51 1008.14 1008.39 1008.73 1008.83 1008.62 1008.93 1009.33 1009.57 1009.80 1010.33 1010.94 1011.61 1012.21 1012.46 1012.54 1012.63 1012.94 1013.49 1013.75 1014.04 1014.46 1014.79 1015.20 1015.56 1015.86 1016.18 1016.55 1016.81 1017.10 1017.37 1017.58 1017.82 1018.13
1014.65 1014.70 1014.52 1014.06 1013.27 1012.12 1011.31 1010.67 1010.28 1009.90 1009.43 1009.32 1009.00 1008.32 1007.85 1007.93 1008.37 1008.62 1008.75 1009.04 1009.13 1009.17 1009.29 1009.66 1010.13 1010.57 1010.96 1011.43 1012.00 1012.51 1012.72 1012.79 1012.87 1013.36 1013.81 1014.18 1014.57 1014.87 1015.19 1015.58 1015.93 1016.23 1016.61 1016.82 1017.06 1017.44 1017.73 1018.01 1018.28
1014.98 1014.90 1014.40 1013.94 1013.43 1012.24 1011.90 1011.11 1010.50 1010.18 1010.01 1009.75 1009.41 1009.16 1008.62 1008.50 1008.80 1008.82 1008.92 1009.09 1009.47 1009.48 1009.33 1009.63 1010.00 1010.35 1010.78 1011.27 1011.77 1012.40 1012.85 1012.90 1013.14 1013.10 1013.66 1014.21 1014.41 1014.84 1015.20 1015.46 1015.95 1016.30 1016.66 1016.82 1017.01 1017.34 1017.78 1018.13 1018.40
1014.88 1014.96 1014.35 1013.90 1013.52 1013.14 1012.76 1012.18 1011.31 1010.50 1010.25 1010.01 1009.49 1008.98 1008.74 1008.81 1008.94 1008.79 1008.63 1008.64 1008.94 1009.12 1009.17 1009.53 1009.82 1010.02 1010.44 1011.01 1011.55 1012.14 1012.62 1013.06 1013.14 1013.41 1013.57 1013.76 1014.17 1014.51 1014.88 1015.39 1015.94 1016.35 1016.76 1016.98 1017.16 1017.40 1017.77 1018.16 1018.26
1015.56 1014.95 1014.71 1014.38 1014.36 1014.28 1013.61 1012.80 1011.96 1010.64 1010.19 1009.90 1009.57 1009.25 1009.13 1008.74 1008.49 1008.61 1008.38 1008.41 1008.67 1009.21 1009.74 1009.75 1009.75 1009.80 1010.13 1010.65 1011.09 1011.60 1012.22 1012.68 1013.03 1013.22 1013.47 1013.80 1014.13 1014.52 1014.86 1015.24 1015.78 1016.19 1016.78 1016.91 1017.23 1017.51 1017.45 1017.82 1018.17
1016.01 1015.27 1015.28 1015.07 1015.05 1014.77 1013.96 1013.36 1011.97 1011.09 1010.49 1010.30 1009.83 1009.33 1009.01 1008.72 1008.02 1007.77 1007.67 1007.75 1008.32 1008.79 1009.32 1009.89 1010.14 1009.85 1009.97 1010.24 1010.81 1011.01 1011.52 1012.14 1012.63 1012.94 1013.45 1013.81 1014.10 1014.38 1014.60 1014.84 1015.35 1015.82 1016.17 1016.50 1016.80 1017.18 1017.39 1017.72 1018.33
1015.85 1015.69 1015.70 1015.44 1015.14 1014.58 1013.90 1012.88 1011.93 1010.12 1010.08 1009.73 1009.28 1008.92 1008.23 1007.97 1007.63 1007.07 1006.89 1006.83 1007.43 1008.08 1008.87 1009.54 1010.04 1010.20 1010.01 1010.20 1010.49 1010.81 1011.16 1011.58 1012.17 1012.73 1013.16 1013.42 1013.72 1014.22 1014.55 1014.67 1015.03 1015.40 1015.85 1016.16 1016.61 1016.80 1017.30 1017.64 1017.98
1016.23 1015.95 1015.40 1015.02 1014.47 1014.14 1013.53 1012.48 1011.97 1010.04 1009.51 1009.13 1008.90 1008.45 1008.00 1007.50 1007.23 1006.50 1006.01 1006.15 1006.49 1006.84 1007.81 1008.84 1009.39 1009.83 1009.84 1009.89 1010.25 1010.57 1010.94 1011.33 1011.76 1012.23 1012.79 1013.19 1013.38 1013.64 1014.19 1014.60 1014.79 1015.27 1015.65 1016.01 1016.29 1016.56 1016.99 1017.40 1017.74
1016.43 1015.68 1015.15 1014.27 1014.23 1013.92 1013.19 1011.09 1010.27 1009.82 1009.72 1009.19 1008.97 1008.78 1008.07 1007.62 1006.85 1006.09 1005.63 1005.46 1005.77 1005.84 1006.24 1007.51 1008.64 1009.36 1009.54 1009.61 1009.86 1010.22 1010.46 1011.08 1011.54 1011.78 1012.18 1012.78 1013.09 1013.34 1013.81 1014.30 1014.70 1014.92 1015.62 1015.99 1016.37 1016.72 1017.08 1017.40 1017.71
1016.44 1016.08 1015.32 1014.61 1013.90 1013.65 1013.46 1008.68 1009.81 1010.00 1009.76 1009.25 1008.92 1008.18 1007.81 1007.38 1006.88 1006.18 1005.53 1004.93 1004.89 1005.10 1005.48 1006.03 1007.08 1008.44 1009.11 1009.27 1009.58 1009.88 1010.20 1010.49 1011.06 1011.41 1011.77 1012.21 1012.65 1013.00 1013.53 1014.03 1014.36 1014.68 1015.32 1015.75 1016.22 1016.63 1017.02 1017.27 1017.55
1017.07 1016.03 1015.65 1014.73 1014.21 1014.03 1013.58 1009.87 1009.86 1009.73 1009.73 1008.78 1008.54 1008.12 1007.06 1005.90 1005.56 1005.74 1005.44 1004.35 1003.84 1003.82 1004.37 1005.03 1005.80 1006.89 1008.05 1008.77 1009.26 1009.59 1010.04 1010.23 1010.35 1011.04 1011.30 1011.66 1012.18 1012.61 1013.08 1013.64 1013.94 1014.27 1014.70 1015.32 1015.85 1016.44 1016.73 1017.14 1017.49
1017.25 1016.76 1015.46 1014.87 1014.40 1014.24 1013.45 1011.37 1008.70 1009.43 1009.04 1007.95 1007.73 1007.40 1006.93 1005.75 1003.50 1004.90 1004.35 1003.78 1003.20 1002.88 1003.13 1003.90 1004.63 1005.50 1006.83 1007.82 1008.56 1009.27 1009.71 1010.21 1010.29 1010.53 1010.91 1011.13 1011.46 1012.06 1012.66 1012.81 1013.30 1013.58 1014.27 1014.91 1015.48 1015.99 1016.53 1016.72 1017.02
1017.78 1017.07 1015.99 1014.29 1013.84 1014.33 1012.87 1011.60 1009.28 1006.65 1008.05 1007.22 1006.42 1005.72 1005.25 1004.74 1003.51 1003.76 1003.45 1002.81 1002.38 1002.19 1002.22 1002.54 1003.60 1004.54 1005.91 1006.76 1007.29 1008.03 1008.36 1009.23 1009.88 1009.95 1010.15 1010.67 1011.03 1011.36 1011.87 1012.42 1012.82 1013.13 1013.44 1013.98 1014.81 1015.44 1016.00 1016.37 1016.91
1017.82 1017.03 1015.82 1013.63 1013.40 1014.20 1011.85 1011.04 1007.85 1006.63 1005.54 1005.92 1005.12 1004.30 1003.77 1003.20 1002.55 1002.02 1002.07 1001.72 1001.07 1000.94 1001.50 1001.86 1002.29 1003.01 1004.46 1005.51 1006.13 1006.59 1007.26 1007.98 1008.67 1009.48 1009.56 1009.77 1010.26 1010.88 1011.14 1011.52 1012.12 1012.76 1013.26 1013.66 1014.17 1014.65 1015.41 1015.88 1016.34
1017.52 1016.78 1015.64 1015.32 1013.33 1012.91 1012.21 1009.54 1005.69 1004.76 1004.75 1003.75 1003.23 1003.46 1002.91 1002.16 1001.60 1001.51 1000.88 1000.72 1000.32 1000.32 1000.18 1000.61 1001.14 1001.77 1002.65 1004.02 1005.54 1006.24 1006.97 1007.75 1008.18 1008.45 1008.81 1009.21 1009.52 1010.03 1010.44 1010.98 1011.45 1011.92 1012.48 1012.81 1013.39 1013.88 1014.24 1014.90 1015.67
1017.00 1015.91 1015.68 1015.28 1014.92 1013.04 1012.40 1010.08 1005.16 1003.55 1003.24 1003.69 1002.87 1002.42 1001.78 1001.05 1000.35 1000.38 1000.11 1000.15 999.63 999.70 999.99 999.91 1000.58 1001.20 1001.88 1003.16 1004.33 1004.89 1004.98 1005.86 1006.29 1007.01 1008.20 1008.75 1009.22 1009.72 1010.38 1011.10 1011.83 1012.30 1012.13 1012.42 1012.64 1013.22 1013.65 1014.00 1014.50
1016.13 1015.86 1015.38 1014.93 1014.68 1014.07 1011.85 1011.23 1004.99 1005.01 1003.74 1003.02 1002.96 1002.18 1001.47 999.79 998.75 999.47 999.91 999.88 1000.54 1000.18 1000.07 1000.16 1000.69 1001.38 1001.84 1002.61 1003.57 1004.59 1004.93 1005.55 1006.03 1006.85 1007.91 1008.47 1008.99 1009.57 1010.06 1010.75 1011.97 1012.10 1012.41 1012.20 1012.30 1012.82 1012.94 1013.12 1013.37
1015.43 1015.29 1014.61 1014.37 1014.64 1013.81 1011.45 1010.71 1005.63 1007.18 1007.84 1005.55 1003.89 1003.92 1003.09 1000.41 999.18 1000.37 1001.18 1001.63 1001.50 1001.48 1001.16 1001.21 1001.51 1002.47 1002.82 1003.62 1003.95 1004.66 1005.07 1005.59 1006.36 1006.89 1007.62 1008.12 1008.47 1009.26 1009.22 1009.74 1009.30 1011.86 1012.32 1012.12 1011.58 1011.91 1011.96 1012.32 1012.41
1015.63 1015.57 1014.47 1014.16 1013.82 1011.37 1010.51 1010.00 1008.61 1009.62 1009.64 1008.68 1007.09 1006.61 1005.45 1004.56 1003.50 1003.44 1003.34 1003.35 1003.33 1003.35 1002.38 1002.73 1002.81 1003.59 1004.15 1004.71 1005.60 1005.70 1006.13 1006.28 1006.72 1007.24 1007.64 1007.92 1008.44 1008.68 1007.98 1008.30 1009.20 1010.63 1011.44 1011.34 1011.06 1011.22 1011.31 1011.38 1011.84
1015.51 1015.97 1015.24 1014.37 1012.92 1010.68 1009.94 1009.64 1009.77 1011.18 1011.29 1010.98 1009.91 1009.19 1007.43 1006.77 1005.95 1005.46 1005.45 1005.42 1005.38 1005.43 1003.39 1004.30 1003.93 1004.99 1005.56 1006.16 1006.85 1007.11 1007.26 1007.19 1007.62 1008.06 1008.43 1008.45 1008.60 1008.58 1008.40 1008.35 1008.00 1009.10 1009.87 1010.21 1010.50 1010.48 1010.42 1010.59 1010.94
1015.48 1015.47 1015.06 1014.58 1013.22 1012.23 1010.19 1010.23 1010.70 1012.00 1012.01 1012.01 1011.57 1010.64 1009.07 1008.92 1008.09 1007.85 1007.69 1007.33 1007.88 1006.70 1005.85 1006.08 1006.85 1007.10 1007.21 1007.72 1007.91 1008.02 1008.51 1008.44 1008.64 1008.88 1008.71 1008.79 1009.06 1009.26 1009.26 1008.61 1008.25 1008.59 1009.09 1009.37 1009.51 1009.59 1009.59 1009.61 1009.93
1015.21 1015.33 1015.00 1014.67 1013.52 1012.02 1010.84 1012.05 1013.38 1013.57 1013.61 1013.84 1012.99 1012.77 1011.77 1011.35 1010.55 1009.81 1008.94 1008.95 1009.07 1008.15 1008.20 1009.09 1008.38 1009.38 1009.08 1009.34 1008.93 1009.47 1009.31 1009.81 1009.80 1009.37 1009.24 1008.95 1008.99 1008.96 1008.88 1008.74 1008.48 1008.34 1008.50 1008.56 1008.63 1008.72 1008.78 1008.84 1009.00
1015.00 1015.03 1015.30 1015.03 1014.19 1013.11 1012.46 1014.29 1016.01 1016.09 1015.83 1015.59 1015.30 1014.11 1013.97 1013.37 1012.76 1012.22 1011.55 1011.04 1010.57 1010.30 1010.35 1010.42 1010.92 1011.23 1009.98 1010.74 1010.12 1009.72 1011.27 1010.38 1009.56 1010.14 1009.97 1009.21 1009.21 1008.89 1008.79 1008.49 1008.25 1008.22 1008.04 1007.84 1007.75 1007.72 1007.87 1008.04 1008.01
1015.37 1015.56 1015.56 1015.08 1013.97 1013.75 1013.64 1016.04 1017.10 1017.32 1017.28 1016.96 1016.64 1015.83 1015.63 1015.33 1014.72 1014.16 1013.57 1012.92 1012.41 1012.41 1012.23 1012.26 1012.24 1011.73 1011.90 1012.15 1011.84 1011.64 1010.75 1010.21 1010.24 1009.70 1009.58 1009.59 1009.37 1009.03 1008.97 1008.55 1008.16 1007.68 1007.41 1007.06 1006.97 1006.81 1006.89 1007.02 1007.20
Thickness
5728 5728 5729 5728 5713 5705 5704 5716 5717 5726 5733 5748 5750 5752 5756 5761 5758 5756 5796 5800 5797 5796 5790 5782 5776 5770 5764 5761 5760 5757 5754 5751 5747 5745 5742 5738 5735 5731 5726 5722 5718 5713 5710 5709 5707 5705 5703 5700 5698
5721 5722 5720 5709 5703 5700 5719 5715 5719 5727 5739 5744 5753 5754 5753 5758 5776 5785 5787 5791 5792 5793 5786 5779 5774 5769 5763 5758 5755 5754 5751 5748 5744 5741 5739 5736 5732 5728 5723 5719 5716 5712 5708 5706 5704 5702 5699 5697 5694
5716 5715 5708 5700 5689 5710 5721 5720 5725 5729 5736 5738 5746 5757 5757 5759 5777 5782 5788 5787 5785 5785 5782 5775 5770 5766 5760 5757 5752 5749 5746 5746 5742 5739 5736 5734 5729 5725 5720 5717 5713 5710 5706 5703 5701 5698 5696 5694 5690
5709 5705 5691 5687 5692 5711 5714 5723 5719 5727 5734 5738 5741 5741 5759 5777 5775 5782 5785 5781 5776 5777 5778 5770 5766 5760 5756 5751 5747 5746 5742 5742 5739 5735 5734 5730 5727 5723 5717 5713 5710 5707 5704 5702 5699 5696 5693 5691 5687
5698 5693 5682 5676 5688 5700 5707 5714 5718 5722 5723 5730 5737 5737 5745 5767 5770 5772 5777 5774 5771 5768 5771 5767 5762 5758 5752 5746 5743 5741 5740 5737 5736 5733 5731 5727 5724 5720 5715 5711 5708 5704 5701 5699 5696 5693 5690 5687 5684
5687 5683 5674 5676 5683 5698 5713 5715 5716 5721 5724 5728 5729 5734 5744 5760 5762 5762 5764 5768 5766 5763 5762 5764 5760 5754 5748 5742 5739 5738 5737 5735 5731 5730 5726 5724 5721 5717 5712 5709 5705 5702 5698 5696 5694 5690 5688 5684 5681
5678 5674 5671 5668 5675 5690 5706 5712 5710 5716 5719 5723 5728 5722 5742 5753 5755 5757 5756 5758 5761 5759 5756 5755 5753 5749 5744 5738 5732 5731 5732 5732 5729 5724 5722 5720 5716 5713 5709 5705 5702 5699 5696 5693 5690 5687 5684 5681 5676
5671 5668 5656 5662 5671 5682 5699 5703 5710 5710 5711 5723 5723 5714 5724 5741 5747 5747 5749 5749 5751 5752 5753 5751 5746 5742 5739 5734 5730 5725 5725 5726 5726 5722 5718 5715 5711 5709 5706 5702 5698 5696 5692 5690 5688 5684 5681 5677 5673
5662 5656 5654 5662 5664 5680 5688 5691 5705 5710 5704 5708 5712 5713 5724 5731 5733 5735 5736 5738 5738 5742 5748 5746 5743 5739 5735 5731 5727 5722 5719 5719 5718 5720 5715 5711 5708 5704 5702 5699 5695 5692 5688 5687 5686 5683 5679 5675 5671
5656 5648 5654 5662 5665 5667 5669 5673 5683 5691 5692 5693 5701 5712 5718 5720 5722 5725 5729 5733 5734 5736 5741 5740 5740 5738 5733 5728 5724 5718 5715 5712 5712 5711 5711 5710 5707 5704 5700 5696 5692 5688 5683 5682 5681 5680 5677 5672 5668
5640 5646 5647 5650 5648 5647 5652 5660 5672 5681 5680 5688 5691 5698 5702 5708 5713 5715 5721 5724 5726 5726 5725 5730 5732 5734 5731 5727 5722 5719 5713 5710 5708 5708 5706 5704 5703 5700 5697 5693 5688 5684 5679 5678 5676 5674 5674 5670 5666
5629 5636 5633 5635 5633 5633 5639 5647 5660 5667 5672 5680 5684 5690 5694 5697 5704 5712 5716 5720 5719 5720 5719 5719 5722 5726 5726 5723 5718 5718 5715 5710 5706 5706 5702 5700 5697 5696 5694 5692 5688 5684 5680 5677 5675 5672 5670 5668 5662
5620 5621 5619 5622 5623 5626 5632 5640 5646 5669 5672 5675 5679 5682 5689 5694 5699 5707 5713 5718 5716 5712 5712 5712 5714 5715 5719 5718 5716 5714 5713 5709 5705 5702 5699 5698 5696 5693 5689 5689 5686 5683 5679 5676 5673 5671 5666 5664 5661
5609 5610 5613 5615 5617 5618 5619 5631 5635 5658 5666 5671 5672 5675 5681 5686 5691 5701 5709 5711 5711 5713 5709 5708 5710 5711 5713 5715 5712 5710 5707 5705 5703 5701 5696 5694 5694 5693 5689 5685 5683 5679 5676 5673 5671 5670 5665 5662 5659
5597 5603 5605 5612 5608 5606 5613 5635 5638 5646 5644 5650 5657 5659 5668 5674 5684 5694 5700 5703 5706 5711 5712 5707 5704 5705 5708 5711 5710 5707 5705 5700 5697 5698 5696 5692 5691 5690 5687 5684 5679 5676 5672 5669 5666 5663 5660 5658 5655
5589 5589 5596 5602 5604 5598 5600 5645 5636 5630 5628 5633 5639 5651 5657 5662 5670 5680 5688 5695 5701 5704 5704 5707 5705 5702 5701 5704 5705 5702 5699 5698 5695 5694 5693 5692 5689 5687 5683 5681 5677 5673 5669 5666 5663 5661 5657 5656 5654
5570 5586 5580 5586 5585 5578 5583 5623 5620 5620 5612 5620 5622 5628 5644 5661 5671 5668 5674 5688 5698 5704 5703 5701 5701 5702 5699 5698 5698 5696 5694 5694 5695 5691 5690 5689 5686 5683 5681 5678 5675 5673 5670 5665 5661 5657 5656 5652 5650
5565 5564 5575 5571 5569 5561 5566 5584 5618 5605 5599 5609 5609 5611 5617 5637 5672 5657 5668 5678 5688 5697 5702 5700 5698 5698 5698 5695 5694 5690 5689 5688 5690 5690 5687 5686 5686 5683 5679 5678 5675 5672 5669 5664 5659 5655 5652 5651 5649
5540 5545 5552 5571 5564 5542 5552 5557 5585 5616 5583 5576 5588 5600 5608 5620 5648 5644 5655 5669 5678 5684 5693 5697 5694 5692 5689 5690 5693 5691 5692 5688 5684 5687 5686 5683 5682 5682 5678 5674 5672 5671 5671 5667 5660 5655 5650 5647 5644
5524 5529 5538 5568 5556 5526 5547 5543 5570 5582 5575 5556 5564 5579 5587 5603 5625 5637 5645 5656 5670 5678 5681 5688 5693 5695 5688 5690 5692 5695 5693 5690 5686 5682 5685 5685 5682 5677 5675 5675 5672 5666 5664 5663 5659 5656 5648 5645 5642
5521 5517 5530 5520 5541 5534 5519 5539 5581 5573 5557 5561 5554 5540 5544 5557 5588 5608 5621 5639 5653 5662 5676 5683 5690 5694 5695 5693 5684 5686 5685 5681 5681 5684 5685 5682 5680 5676 5672 5671 5667 5666 5664 5662 5658 5656 5653 5645 5640
5507 5519 5517 5510 5502 5518 5511 5495 5567 5578 5565 5548 5545 5530 5521 5526 5544 5568 5591 5612 5636 5648 5660 5674 5679 5686 5689 5686 5682 5686 5692 5687 5690 5687 5679 5677 5672 5668 5663 5657 5653 5651 5656 5657 5657 5653 5649 5646 5642
5509 5505 5510 5510 5501 5492 5519 5491 5562 5559 5555 5550 5535 5530 5518 5521 5532 5545 5558 5584 5600 5623 5641 5656 5663 5669 5675 5678 5680 5678 5684 5685 5683 5679 5671 5667 5663 5659 5658 5653 5642 5634 5639 5646 5649 5646 5645 5647 5645
5511 5507 5511 5504 5485 5479 5512 5511 5560 5529 5491 5503 5521 5501 5495 5514 5525 5520 5529 5546 5573 5594 5615 5632 5644 5645 5652 5657 5665 5669 5672 5674 5671 5669 5663 5661 5659 5654 5655 5652 5654 5626 5627 5637 5644 5644 5646 5645 5646
5499 5498 5512 5511 5499 5531 5528 5522 5533 5496 5483 5477 5485 5473 5474 5474 5480 5487 5503 5521 5542 5564 5594 5610 5622 5626 5632 5636 5636 5647 5652 5658 5660 5656 5655 5653 5651 5651 5657 5655 5652 5640 5633 5636 5639 5641 5643 5645 5642
5498 5480 5495 5494 5517 5530 5537 5524 5521 5485 5466 5457 5463 5453 5468 5468 5473 5479 5490 5504 5522 5540 5575 5586 5608 5609 5613 5616 5619 5628 5633 5640 5639 5638 5638 5641 5640 5640 5646 5650 5654 5644 5639 5636 5633 5636 5641 5643 5641
5484 5483 5494 5481 5504 5498 5527 5519 5506 5481 5470 5454 5451 5453 5455 5463 5472 5477 5486 5501 5509 5532 5555 5571 5577 5585 5593 5597 5601 5610 5612 5618 5621 5621 5624 5626 5626 5627 5628 5636 5642 5639 5636 5633 5632 5635 5639 5643 5641
5490 5490 5492 5486 5490 5510 5531 5497 5468 5458 5454 5449 5444 5444 5448 5451 5464 5477 5486 5498 5505 5525 5536 5538 5554 5557 5568 5574 5584 5584 5594 5597 5600 5607 5610 5615 5617 5621 5623 5626 5630 5634 5632 5633 5633 5634 5636 5639 5641
5492 5491 5485 5480 5490 5505 5513 5477 5438 5434 5436 5435 5438 5441 5442 5445 5452 5464 5477 5488 5498 5509 5519 5525 5527 5530 5552 5554 5565 5574 5565 5579 5592 5590 5594 5604 5606 5612 5614 5619 5623 5624 5627 5630 5631 5632 5632 5633 5637
5486 5483 5479 5481 5505 5505 5506 5458 5433 5427 5427 5426 5429 5431 5432 5437 5443 5450 5461 5474 5484 5491 5501 5509 5515 5525 5530 5533 5542 5551 5562 5570 5572 5581 5587 5590 5592 5598 5601 5607 5612 5617 5620 5624 5625 5628 5629 5630 5630